FW5647 Weather Reports


time (UTC)temp
F
wind
direction
speed
knots
gust
knots
rain 1hr
in
rain 24hr
in
rain mn
in
humidity
%
barometer
mb
20260507163033 51 274 6.1 12.2 0.00 0.00 0.00 52 1012.7
20260507161556 51 309 7.0 13.0 0.00 0.00 0.00 50 1012.8
20260507160041 50 249 7.8 13.0 0.00 0.00 0.00 50 1013.0
20260507154542 50 296 5.2 13.9 0.00 0.00 0.00 51 1013.0
20260507153040 51 335 6.1 10.4 0.00 0.00 0.00 52 1012.8
20260507151536 50 295 6.1 11.3 0.00 0.00 0.00 54 1012.8
20260507150035 50 262 7.0 14.8 0.00 0.00 0.00 56 1012.7
20260507144534 49 312 5.2 12.2 0.00 0.00 0.00 54 1012.7
20260507143043 50 294 4.3 9.6 0.00 0.00 0.00 55 1012.9
20260507141541 50 266 3.5 6.1 0.00 0.00 0.00 56 1012.8
20260507140039 50 287 1.7 5.2 0.00 0.00 0.00 56 1012.8
20260507134536 49 320 2.6 7.0 0.00 0.00 0.00 58 1012.9
20260507133043 49 304 2.6 6.1 0.00 0.00 0.00 57 1013.0
20260507131541 48 211 1.7 5.2 0.00 0.00 0.00 59 1013.2
20260507130039 46 238 2.6 6.1 0.00 0.00 0.00 62 1013.1
20260507124540 46 276 0.9 4.3 0.00 0.00 0.00 63 1013.1
20260507123040 45 343 1.7 3.5 0.00 0.00 0.00 63 1013.0
20260507121541 44 307 0.9 2.6 0.00 0.00 0.00 67 1013.0
20260507120042 43 277 1.7 3.5 0.00 0.00 0.00 71 1013.0
20260507114535 41 257 0.0 1.7 0.00 0.00 0.00 76 1012.8
20260507113047 39 274 0.0 0.9 0.00 0.00 0.00 80 1012.7
20260507111538 37 0 0.0 0.0 0.00 0.00 0.00 83 1012.7
20260507110038 35 0 0.0 0.9 0.00 0.00 0.00 86 1012.6
20260507104536 35 0 0.0 0.0 0.00 0.00 0.00 86 1012.3
20260507103033 35 0 0.0 0.0 0.00 0.00 0.00 83 1012.3
20260507101532 36 0 0.0 0.0 0.00 0.00 0.00 82 1012.2
20260507100037 36 0 0.0 0.0 0.00 0.00 0.00 80 1012.1
20260507094544 37 0 0.0 0.0 0.00 0.00 0.00 79 1012.1
20260507093037 38 0 0.0 0.0 0.00 0.00 0.00 79 1012.2
20260507091536 38 0 0.0 0.0 0.00 0.00 0.00 77 1012.4
20260507090036 40 0 0.0 0.0 0.00 0.00 0.00 77 1012.3
20260507084534 41 0 0.0 0.0 0.00 0.00 0.00 75 1012.4
20260507083034 42 0 0.0 0.9 0.00 0.00 0.00 73 1012.5
20260507081545 42 0 0.0 0.9 0.00 0.00 0.00 74 1012.5
20260507080038 42 0 0.0 0.9 0.00 0.00 0.00 73 1012.4
20260507074535 42 0 0.0 0.9 0.00 0.00 0.00 73 1012.5
20260507073035 43 0 0.0 0.9 0.00 0.00 0.00 72 1012.4
20260507071535 42 0 0.0 0.9 0.00 0.00 0.00 72 1012.5
20260507070040 42 0 0.0 0.9 0.00 0.00 0.00 72 1012.5
20260507064542 42 0 0.0 0.0 0.00 0.00 0.00 71 1012.8
20260507063042 42 0 0.0 0.9 0.00 0.00 0.00 73 1012.5
20260507061538 43 0 0.0 0.0 0.00 0.00 0.00 73 1012.7
20260507060040 44 0 0.0 0.9 0.00 0.00 0.00 70 1012.7
20260507054537 44 0 0.0 0.9 0.00 0.00 0.00 68 1012.7
20260507053037 44 0 0.0 0.9 0.00 0.00 0.00 69 1012.8
20260507051535 44 0 0.0 0.9 0.00 0.00 0.00 69 1012.9
20260507050036 44 259 0.0 1.7 0.00 0.00 0.00 68 1012.9
20260507044541 43 0 0.0 0.9 0.00 0.00 0.00 71 1012.9
20260507043038 44 0 0.0 0.0 0.00 0.00 0.00 73 1013.0
20260507041542 44 0 0.0 0.0 0.00 0.00 0.00 69 1013.0
20260507040033 45 0 0.0 0.0 0.00 0.00 0.00 66 1012.9
20260507034542 45 0 0.0 0.0 0.00 0.00 0.00 65 1013.0
20260507033100 45 0 0.0 0.0 0.00 0.00 0.00 68 1013.1
20260507031537 45 0 0.0 0.9 0.00 0.00 0.00 65 1013.0
20260507030033 46 0 0.0 0.9 0.00 0.00 0.00 62 1013.2
20260507024533 46 0 0.0 0.0 0.00 0.00 0.00 60 1013.3
20260507023033 47 0 0.0 0.9 0.00 0.00 0.00 60 1013.3
20260507021531 48 0 0.0 1.7 0.00 0.00 0.00 59 1013.2
20260507020037 48 0 0.9 1.7 0.00 0.00 0.00 56 1013.1
20260507014535 48 237 0.0 0.9 0.00 0.00 0.00 58 1012.9
20260507013038 49 0 0.0 0.9 0.00 0.00 0.00 55 1012.9
20260507011541 49 0 0.0 3.5 0.00 0.00 0.00 56 1012.6
20260507010041 49 0 0.0 1.7 0.00 0.00 0.00 56 1012.9
20260507004531 49 0 0.9 2.6 0.00 0.00 0.00 60 1012.7
20260507003034 49 0 0.0 0.0 0.00 0.00 0.00 61 1012.6
20260507001551 50 0 0.0 0.9 0.00 0.00 0.00 58 1012.3
20260507000032 50 0 0.0 1.7 0.00 0.00 0.00 52 1012.5
20260506234546 51 271 0.0 0.9 0.00 0.00 0.00 50 1012.3
20260506233033 51 233 0.0 5.2 0.00 0.00 0.00 50 1012.2
20260506231537 51 326 0.9 3.5 0.00 0.00 0.00 50 1012.2
20260506230035 52 222 0.9 5.2 0.00 0.00 0.00 50 1012.2
20260506224537 52 269 0.9 4.3 0.00 0.00 0.00 51 1012.3
20260506223034 52 41 1.7 3.5 0.00 0.00 0.00 49 1012.3
20260506221534 52 10 2.6 5.2 0.00 0.00 0.00 49 1012.4
20260506220045 52 300 0.9 3.5 0.00 0.00 0.00 50 1012.3
20260506214535 52 295 2.6 6.1 0.00 0.00 0.00 48 1012.2
20260506213034 52 311 3.5 7.0 0.00 0.00 0.00 48 1012.2
20260506211534 52 318 3.5 7.8 0.00 0.00 0.00 49 1012.1
20260506210032 52 286 1.7 5.2 0.00 0.00 0.00 49 1012.2
20260506204536 52 323 2.6 8.7 0.00 0.00 0.00 49 1012.3
20260506203034 52 276 2.6 7.8 0.00 0.00 0.00 48 1012.3
20260506201534 52 308 2.6 7.0 0.00 0.00 0.00 49 1012.1
20260506200036 52 315 2.6 4.3 0.00 0.00 0.00 49 1012.7
20260506194537 51 285 3.5 7.8 0.00 0.00 0.00 50 1012.5
20260506193032 51 301 5.2 9.6 0.00 0.00 0.00 49 1012.5
20260506191537 51 289 5.2 8.7 0.00 0.00 0.00 50 1012.8
20260506190033 50 10 3.5 9.6 0.00 0.00 0.00 50 1012.9
20260506184538 50 294 4.3 8.7 0.00 0.00 0.00 50 1012.3
20260506183038 50 233 1.7 7.8 0.00 0.00 0.00 52 1012.5
20260506181543 50 249 2.6 7.0 0.00 0.00 0.00 51 1012.4
20260506180033 50 90 3.5 7.0 0.00 0.00 0.00 52 1012.5
20260506174531 50 33 4.3 8.7 0.00 0.01 0.00 52 1012.6
20260506173047 49 311 5.2 10.4 0.00 0.01 0.00 52 1013.1
20260506171535 49 246 5.2 9.6 0.00 0.01 0.00 54 1013.2
20260506170036 49 247 3.5 7.8 0.00 0.01 0.00 52 1013.0
20260506164534 49 359 4.3 7.0 0.00 0.07 0.00 57 1013.0